GW4858 Weather Reports


Display with metric or nautical units.
time (UTC)temp
F
wind
direction
speed
MPH
gust
MPH
rain 1hr
in
rain 24hr
in
rain mn
in
humidity
%
barometer
mb
20260905093858 72 306 0.0 0.0 0.00 0.00 0.00 73 1013.5
20260905093354 72 325 0.0 0.0 0.00 0.00 0.00 72 1013.7
20260905092850 72 325 0.0 0.0 0.00 0.00 0.00 72 1013.7
20260905092350 72 325 0.0 0.0 0.00 0.00 0.00 73 1013.3
20260905091845 73 325 0.0 0.0 0.00 0.00 0.00 73 1013.3
20260905091339 73 324 0.0 0.0 0.00 0.00 0.00 73 1013.4
20260905090838 73 337 0.0 0.0 0.00 0.00 0.00 73 1013.4
20260905090334 73 335 0.0 1.0 0.00 0.00 0.00 74 1013.3
20260905085834 73 345 0.0 0.0 0.00 0.00 0.00 75 1013.4
20260905085333 73 335 0.0 0.0 0.00 0.00 0.00 75 1013.3
20260905084824 73 325 0.0 1.0 0.00 0.00 0.00 76 1013.3
20260905084323 73 315 0.0 0.0 0.00 0.00 0.00 77 1013.4
20260905083818 72 313 0.0 2.0 0.00 0.00 0.00 77 1013.3
20260905083314 73 312 0.0 0.0 0.00 0.00 0.00 77 1013.2
20260905082809 73 314 0.0 0.0 0.00 0.00 0.00 77 1013.3
20260905082307 73 314 0.0 0.0 0.00 0.00 0.00 77 1013.2
20260905081805 73 315 0.0 0.0 0.00 0.00 0.00 77 1013.4
20260905081301 73 315 0.0 0.0 0.00 0.00 0.00 77 1013.2
20260905080759 73 315 0.0 0.0 0.00 0.00 0.00 77 1013.4
20260905080254 73 328 0.0 0.0 0.00 0.00 0.00 77 1013.6
20260905075753 73 328 0.0 0.0 0.00 0.00 0.00 77 1013.6
20260905075252 73 345 0.0 0.0 0.00 0.00 0.00 76 1013.5
20260905074751 73 314 0.0 1.0 0.00 0.00 0.00 76 1013.3
20260905074248 73 315 0.0 0.0 0.00 0.00 0.00 76 1013.5
20260905073743 73 315 0.0 0.0 0.00 0.00 0.00 76 1013.3
20260905073238 73 315 0.0 0.0 0.00 0.00 0.00 75 1013.4
20260905072737 73 315 0.0 0.0 0.00 0.00 0.00 75 1013.6
20260905072233 73 315 0.0 0.0 0.00 0.00 0.00 75 1013.4
20260905071729 73 317 0.0 0.0 0.00 0.00 0.00 74 1013.6
20260905071225 73 311 0.0 0.0 0.00 0.00 0.00 74 1013.5
20260905070720 73 317 0.0 0.0 0.00 0.00 0.00 74 1013.2
20260905070216 74 317 0.0 0.0 0.00 0.00 0.00 74 1013.6
20260905065714 74 324 0.0 0.0 0.00 0.00 0.00 73 1013.5
20260905065209 74 324 0.0 0.0 0.00 0.00 0.00 73 1013.4
20260905064704 74 324 0.0 0.0 0.00 0.00 0.00 73 1013.7
20260905064200 74 324 0.0 0.0 0.00 0.00 0.00 73 1013.5
20260905063658 74 324 0.0 0.0 0.00 0.00 0.00 73 1013.6
20260905063155 74 325 0.0 0.0 0.00 0.00 0.00 72 1013.5
20260905062650 74 325 0.0 0.0 0.00 0.00 0.00 72 1013.4
20260905062149 74 319 0.0 0.0 0.00 0.00 0.00 72 1013.6
20260905061644 74 314 0.0 0.0 0.00 0.00 0.00 71 1013.8
20260905061143 74 359 0.0 0.0 0.00 0.00 0.00 71 1013.6
20260905060639 75 345 1.0 1.0 0.00 0.00 0.00 71 1013.7
20260905060136 75 342 1.0 1.0 0.00 0.00 0.00 71 1013.9
20260905055634 75 338 0.0 1.0 0.00 0.00 0.00 71 1013.8
20260905055130 75 329 0.0 1.0 0.00 0.00 0.00 71 1013.9
20260905054625 75 24 2.0 2.0 0.00 0.00 0.00 70 1014.0
20260905054120 75 332 1.0 2.0 0.00 0.00 0.00 70 1014.1
20260905053615 75 337 0.0 2.0 0.00 0.00 0.00 70 1014.0
20260905053110 75 22 0.0 1.0 0.00 0.00 0.00 71 1013.8
20260905052609 75 346 1.0 1.0 0.00 0.00 0.00 71 1014.0
20260905052104 75 354 0.0 1.0 0.00 0.00 0.00 71 1014.0
20260905051559 75 347 0.0 0.0 0.00 0.00 0.00 71 1014.4
20260905051055 75 306 0.0 0.0 0.00 0.00 0.00 71 1014.2
20260905050551 75 332 0.0 0.0 0.00 0.00 0.00 71 1014.4
20260905050049 75 329 0.0 0.0 0.00 0.00 0.00 70 1014.2
20260905045542 75 329 0.0 0.0 0.00 0.00 0.00 70 1014.3
20260905045038 75 329 0.0 0.0 0.00 0.00 0.00 70 1014.3
20260905044538 75 348 1.0 1.0 0.00 0.00 0.00 70 1014.4
20260905044032 75 349 1.0 2.0 0.00 0.00 0.00 71 1014.4
20260905043532 75 356 0.0 1.0 0.00 0.00 0.00 72 1014.6
20260905043027 75 348 0.0 1.0 0.00 0.00 0.00 72 1014.6
20260905042520 75 335 0.0 0.0 0.00 0.00 0.00 73 1014.6
20260905042016 75 335 0.0 0.0 0.00 0.00 0.00 73 1014.6
20260905041512 75 335 0.0 0.0 0.00 0.00 0.00 73 1014.7
20260905041007 75 335 0.0 0.0 0.00 0.00 0.00 73 1014.8
20260905040506 75 335 0.0 0.0 0.00 0.00 0.00 73 1014.6
20260905040005 75 335 0.0 0.0 0.00 0.03 0.03 73 1014.8
20260905035500 75 335 0.0 0.0 0.00 0.03 0.03 73 1014.7
20260905034958 76 335 0.0 0.0 0.00 0.03 0.03 73 1014.4
20260905034457 76 335 0.0 0.0 0.00 0.03 0.03 73 1014.7
20260905033957 76 335 0.0 0.0 0.00 0.03 0.03 73 1014.6
20260905033456 76 335 0.0 0.0 0.00 0.03 0.03 74 1014.5
20260905032952 76 335 0.0 0.0 0.00 0.03 0.03 74 1014.4
20260905032447 76 335 0.0 0.0 0.00 0.03 0.03 74 1014.3
20260905031942 76 335 0.0 0.0 0.00 0.03 0.03 75 1014.3
20260905031438 76 335 0.0 0.0 0.00 0.03 0.03 75 1014.3
20260905030933 76 335 0.0 0.0 0.00 0.03 0.03 76 1014.3
20260905030428 75 335 0.0 0.0 0.00 0.03 0.03 77 1014.4
20260905025927 75 335 0.0 0.0 0.00 0.03 0.03 78 1014.3
20260905025422 75 335 0.0 0.0 0.00 0.03 0.03 78 1014.3
20260905024919 75 319 0.0 0.0 0.00 0.03 0.03 79 1014.3
20260905024414 75 319 0.0 0.0 0.00 0.03 0.03 79 1014.4
20260905023909 75 319 0.0 0.0 0.00 0.03 0.03 79 1014.3
20260905023404 75 319 0.0 0.0 0.00 0.03 0.03 79 1014.3
20260905022903 75 319 0.0 0.0 0.00 0.03 0.03 79 1014.4
20260905022353 76 319 0.0 0.0 0.00 0.03 0.03 79 1014.3
20260905021848 76 318 0.0 0.0 0.00 0.03 0.03 79 1014.2
20260905021343 76 319 0.0 0.0 0.00 0.03 0.03 79 1014.3
20260905020838 76 319 0.0 0.0 0.00 0.03 0.03 79 1014.5
20260905020332 76 319 0.0 0.0 0.00 0.03 0.03 79 1014.7
20260905015831 76 319 0.0 0.0 0.00 0.03 0.03 79 1014.6
20260905015331 76 319 0.0 0.0 0.00 0.03 0.03 79 1014.6
20260905014825 75 319 0.0 0.0 0.00 0.03 0.03 79 1014.4
20260905014321 76 319 0.0 0.0 0.00 0.03 0.03 79 1014.4
20260905013816 76 319 0.0 0.0 0.00 0.03 0.03 80 1014.5
20260905013312 76 318 0.0 0.0 0.00 0.03 0.03 80 1014.5
20260905012807 76 318 0.0 0.0 0.00 0.03 0.03 80 1014.5
20260905012305 75 318 0.0 0.0 0.00 0.03 0.03 80 1014.5
20260905011759 76 318 0.0 0.0 0.00 0.03 0.03 80 1014.7
20260905011255 76 318 0.0 0.0 0.00 0.03 0.03 79 1014.5
20260905010755 76 318 0.0 0.0 0.00 0.03 0.03 79 1014.5
20260905010250 77 318 0.0 0.0 0.00 0.03 0.03 79 1014.5
20260905005747 77 317 0.0 0.0 0.00 0.03 0.03 78 1014.3
20260905005242 77 317 0.0 0.0 0.00 0.03 0.03 78 1014.3
20260905004741 77 317 0.0 0.0 0.00 0.03 0.03 77 1014.5
20260905004242 77 316 0.0 0.0 0.00 0.03 0.03 77 1014.2
20260905003742 78 315 0.0 0.0 0.00 0.03 0.03 76 1014.1
20260905003238 78 322 0.0 0.0 0.00 0.03 0.03 76 1014.1
20260905002733 78 329 0.0 0.0 0.00 0.03 0.03 75 1014.2
20260905002233 78 340 0.0 0.0 0.00 0.03 0.03 75 1014.0
20260905001728 78 341 0.0 0.0 0.00 0.03 0.03 74 1014.0
20260905001227 78 325 0.0 0.0 0.00 0.03 0.03 74 1014.1
20260905000723 78 325 0.0 0.0 0.00 0.03 0.03 74 1014.1
20260905000219 79 325 0.0 0.0 0.00 0.03 0.03 73 1014.0
20260904235713 79 324 0.0 0.0 0.00 0.03 0.03 73 1014.1
20260904235208 79 323 0.0 0.0 0.00 0.03 0.03 73 1014.0
20260904234703 79 324 0.0 0.0 0.00 0.03 0.03 73 1014.1
20260904234159 79 323 0.0 0.0 0.00 0.03 0.03 72 1014.1
20260904233654 79 323 0.0 0.0 0.00 0.03 0.03 72 1014.3
20260904233150 79 323 0.0 0.0 0.00 0.03 0.03 71 1014.3
20260904232647 80 324 0.0 0.0 0.00 0.03 0.03 71 1014.0
20260904232143 80 323 0.0 0.0 0.00 0.03 0.03 70 1014.0
20260904231638 80 323 0.0 0.0 0.00 0.03 0.03 69 1014.3
20260904231133 80 324 0.0 0.0 0.00 0.03 0.03 69 1014.2
20260904230632 81 325 0.0 0.0 0.00 0.03 0.03 68 1014.1
20260904230128 81 325 0.0 0.0 0.00 0.03 0.03 68 1014.1
20260904225625 82 324 0.0 0.0 0.00 0.03 0.03 67 1014.0
20260904225120 82 324 0.0 0.0 0.00 0.03 0.03 67 1014.1
20260904224615 82 325 0.0 0.0 0.00 0.03 0.03 66 1014.3
20260904224109 83 328 0.0 0.0 0.00 0.03 0.03 65 1014.1
20260904223609 83 326 0.0 0.0 0.00 0.03 0.03 65 1014.4
20260904223104 83 324 0.0 2.0 0.00 0.03 0.03 64 1014.3
20260904222601 83 340 0.0 0.0 0.00 0.03 0.03 63 1014.2
20260904222056 84 321 0.0 1.0 0.00 0.03 0.03 62 1014.2
20260904221555 84 320 0.0 0.0 0.00 0.03 0.03 62 1014.2
20260904221050 84 325 0.0 0.0 0.00 0.03 0.03 62 1013.9
20260904220549 84 311 0.0 0.0 0.00 0.03 0.03 62 1014.0
20260904220040 84 327 0.0 0.0 0.00 0.03 0.03 61 1014.0
20260904215539 84 333 0.0 0.0 0.00 0.03 0.03 61 1014.0
20260904215036 84 323 0.0 0.0 0.00 0.03 0.03 61 1013.9
20260904214531 84 350 0.0 0.0 0.00 0.03 0.03 60 1014.0
20260904214026 85 246 1.0 3.0 0.00 0.03 0.03 59 1014.0
20260904213524 86 326 0.0 2.0 0.00 0.03 0.03 58 1013.8
20260904213021 86 308 3.0 4.0 0.00 0.03 0.03 58 1013.9
20260904212521 86 330 0.0 1.0 0.00 0.03 0.03 58 1013.9
20260904212016 86 329 0.0 2.0 0.00 0.03 0.03 57 1013.7
20260904211515 86 337 0.0 2.0 0.00 0.03 0.03 57 1013.8
20260904211011 86 318 1.0 2.0 0.00 0.03 0.03 56 1013.9
20260904210510 87 148 1.0 2.0 0.00 0.03 0.03 56 1013.9
20260904210006 86 324 0.0 2.0 0.00 0.03 0.03 57 1013.9
20260904205501 87 13 2.0 6.0 0.00 0.03 0.03 58 1014.0
20260904204958 87 9 2.0 3.0 0.00 0.03 0.03 57 1014.1
20260904204454 87 344 0.0 2.0 0.00 0.03 0.03 57 1013.9
20260904203949 86 316 1.0 3.0 0.00 0.03 0.03 57 1013.9
20260904203446 87 1 3.0 4.0 0.00 0.03 0.03 57 1013.9
20260904202942 87 298 2.0 4.0 0.00 0.03 0.03 57 1014.0
20260904202437 87 327 0.0 2.0 0.00 0.03 0.03 58 1014.0
20260904201933 87 303 1.0 2.0 0.00 0.03 0.03 58 1014.1
20260904201428 87 294 0.0 0.0 0.00 0.03 0.03 59 1014.2
20260904200924 86 1 0.0 1.0 0.00 0.03 0.03 59 1014.3
20260904200422 86 348 2.0 3.0 0.00 0.03 0.03 58 1014.3
20260904195917 86 303 1.0 6.0 0.00 0.03 0.03 58 1014.2
20260904195416 86 357 2.0 3.0 0.00 0.03 0.03 58 1014.4
20260904194916 86 289 1.0 2.0 0.00 0.03 0.03 59 1014.3
20260904194415 87 30 1.0 2.0 0.00 0.03 0.03 58 1014.4
20260904193911 86 325 1.0 2.0 0.00 0.03 0.03 59 1014.5
20260904193406 88 311 1.0 2.0 0.00 0.03 0.03 57 1014.8
20260904192901 89 254 1.0 2.0 0.00 0.03 0.03 56 1014.6
20260904192356 88 327 1.0 3.0 0.00 0.03 0.03 57 1014.5
20260904191853 89 350 0.0 4.0 0.00 0.03 0.03 56 1014.7
20260904191349 88 209 2.0 4.0 0.00 0.03 0.03 58 1014.7
20260904190845 87 302 0.0 4.0 0.00 0.03 0.03 58 1014.6
20260904190341 88 335 1.0 2.0 0.00 0.03 0.03 57 1014.6
20260904185837 88 7 3.0 4.0 0.00 0.03 0.03 57 1014.8
20260904185332 88 2 1.0 3.0 0.00 0.03 0.03 57 1014.5
20260904184832 87 323 0.0 3.0 0.00 0.03 0.03 58 1014.7
20260904184327 87 290 1.0 4.0 0.00 0.03 0.03 57 1015.1
20260904183822 87 306 1.0 3.0 0.00 0.03 0.03 58 1015.0
20260904183317 87 320 0.0 3.0 0.00 0.03 0.03 58 1014.9
20260904182813 87 313 0.0 4.0 0.00 0.03 0.03 58 1014.8
20260904182308 86 314 0.0 3.0 0.00 0.03 0.03 58 1015.0
20260904181803 86 343 0.0 2.0 0.00 0.03 0.03 59 1014.9
20260904181303 86 352 0.0 0.0 0.00 0.03 0.03 59 1015.0
20260904180758 86 341 0.0 2.0 0.00 0.03 0.03 59 1014.9
20260904180254 85 279 1.0 2.0 0.00 0.03 0.03 58 1015.0
20260904175752 86 264 0.0 4.0 0.00 0.03 0.03 57 1014.9
20260904175251 87 337 4.0 7.0 0.00 0.03 0.03 57 1015.1
20260904174746 87 321 0.0 2.0 0.00 0.03 0.03 60 1014.9
20260904174242 86 328 0.0 4.0 0.00 0.03 0.03 60 1015.1
20260904173738 86 332 0.0 3.0 0.00 0.03 0.03 60 1014.9
20260904173238 87 237 3.0 4.0 0.00 0.03 0.03 59 1015.0
20260904172735 86 345 0.0 3.0 0.00 0.03 0.03 61 1015.0
20260904172233 85 285 1.0 2.0 0.00 0.03 0.03 61 1015.0
20260904171728 85 350 0.0 1.0 0.00 0.03 0.03 60 1014.8
20260904171223 86 334 1.0 4.0 0.00 0.03 0.03 59 1014.9
20260904170720 87 245 2.0 4.0 0.00 0.03 0.03 58 1015.0
20260904170215 86 1 3.0 6.0 0.00 0.03 0.03 58 1015.0
20260904165715 86 337 2.0 4.0 0.00 0.03 0.03 57 1015.1
20260904165215 86 334 2.0 3.0 0.00 0.03 0.03 58 1014.9
20260904164709 86 352 3.0 6.0 0.00 0.03 0.03 58 1015.0
20260904164209 87 352 1.0 1.0 0.00 0.03 0.03 58 1015.1
20260904163706 87 225 1.0 3.0 0.00 0.03 0.03 58 1015.1
20260904163201 87 256 1.0 6.0 0.00 0.03 0.03 57 1015.1
20260904162659 86 9 4.0 10.0 0.00 0.03 0.03 57 1015.0
20260904162155 87 319 1.0 9.0 0.00 0.03 0.03 57 1015.2
20260904161650 87 331 0.0 2.0 0.00 0.03 0.03 58 1015.0
20260904161145 87 321 0.0 2.0 0.00 0.03 0.03 59 1014.9
20260904160641 87 3 2.0 6.0 0.00 0.03 0.03 59 1015.3
20260904160137 87 354 2.0 6.0 0.00 0.03 0.03 59 1015.1
20260904155631 87 332 2.0 4.0 0.00 0.03 0.03 60 1015.3
20260904155125 86 349 1.0 7.0 0.00 0.03 0.03 60 1015.3
20260904154624 87 321 1.0 1.0 0.00 0.03 0.03 61 1015.0
20260904154124 87 352 2.0 2.0 0.00 0.03 0.03 61 1015.2
20260904153619 86 329 1.0 3.0 0.00 0.03 0.03 62 1015.2
20260904153115 87 358 2.0 3.0 0.00 0.03 0.03 63 1015.4
20260904152611 86 10 0.0 1.0 0.00 0.03 0.03 63 1015.5
20260904152106 86 347 1.0 4.0 0.00 0.03 0.03 64 1015.4
20260904151601 86 336 1.0 2.0 0.00 0.03 0.03 65 1015.5
20260904151100 85 313 1.0 6.0 0.00 0.03 0.03 65 1015.2
20260904150556 85 344 2.0 4.0 0.00 0.03 0.03 66 1015.5
20260904150056 85 10 3.0 4.0 0.00 0.03 0.03 67 1015.4
20260904145555 85 20 1.0 3.0 0.00 0.03 0.03 68 1015.4
20260904145050 84 359 3.0 8.0 0.00 0.03 0.03 68 1015.4
20260904144546 85 264 3.0 4.0 0.00 0.03 0.03 69 1015.5
20260904144042 84 337 1.0 2.0 0.00 0.03 0.03 71 1015.5
20260904143537 84 350 2.0 3.0 0.00 0.03 0.03 72 1015.4
20260904143034 84 353 2.0 7.0 0.00 0.03 0.03 74 1015.3
20260904142530 84 321 0.0 3.0 0.00 0.03 0.03 75 1015.2
20260904142025 83 5 2.0 2.0 0.00 0.03 0.03 76 1015.5
20260904141520 82 257 2.0 3.0 0.00 0.03 0.03 77 1015.3
20260904141016 82 333 2.0 7.0 0.00 0.03 0.03 79 1015.4
20260904140510 83 337 2.0 3.0 0.00 0.03 0.03 79 1015.4
20260904140010 82 277 0.0 4.0 0.00 0.03 0.03 80 1015.2
20260904135503 82 302 3.0 4.0 0.00 0.03 0.03 81 1015.1
20260904135000 81 354 0.0 7.0 0.00 0.03 0.03 82 1015.3
20260904134500 81 348 1.0 2.0 0.00 0.03 0.03 83 1015.2
20260904133954 81 353 2.0 2.0 0.00 0.03 0.03 83 1015.2
20260904133449 81 338 2.0 6.0 0.00 0.03 0.03 84 1015.2
20260904132945 80 1 1.0 6.0 0.00 0.03 0.03 85 1015.1
20260904132440 80 355 3.0 4.0 0.00 0.03 0.03 86 1015.1
20260904131940 80 17 2.0 7.0 0.00 0.03 0.03 87 1015.0
20260904131435 80 347 0.0 7.0 0.00 0.03 0.03 88 1015.0
20260904130931 80 10 4.0 4.0 0.00 0.03 0.03 89 1015.0
20260904130429 80 6 2.0 4.0 0.00 0.03 0.03 90 1015.1
20260904125924 79 345 0.0 1.0 0.00 0.03 0.03 91 1014.8
20260904125421 79 226 1.0 4.0 0.00 0.03 0.03 92 1014.8
20260904124920 78 342 2.0 3.0 0.00 0.03 0.03 92 1015.1
20260904124417 78 353 2.0 9.0 0.00 0.03 0.03 93 1015.1
20260904123912 78 339 1.0 2.0 0.00 0.03 0.03 93 1014.9
20260904123406 78 332 2.0 3.0 0.00 0.03 0.03 93 1014.9
20260904122903 78 12 0.0 2.0 0.00 0.03 0.03 93 1015.1
20260904122401 78 354 0.0 3.0 0.00 0.03 0.03 94 1015.0
20260904121856 78 300 1.0 2.0 0.00 0.03 0.03 94 1015.0
20260904121353 77 341 1.0 2.0 0.00 0.03 0.03 95 1014.8
20260904120848 76 7 0.0 0.0 0.00 0.03 0.03 95 1014.7
20260904120344 76 338 0.0 3.0 0.00 0.03 0.03 95 1014.8
20260904115839 76 336 0.0 3.0 0.00 0.03 0.03 95 1015.0
20260904115334 75 306 1.0 2.0 0.00 0.03 0.03 95 1014.9
20260904114829 75 336 0.0 0.0 0.00 0.03 0.03 95 1014.8
20260904114323 75 272 0.0 0.0 0.00 0.03 0.03 95 1014.7
20260904113819 75 296 0.0 3.0 0.00 0.03 0.03 95 1014.9
20260904113318 75 327 0.0 2.0 0.00 0.03 0.03 95 1014.7
20260904112813 75 345 0.0 2.0 0.00 0.03 0.03 95 1014.6
20260904112308 75 330 0.0 1.0 0.00 0.03 0.03 95 1014.6
20260904111804 75 254 1.0 1.0 0.00 0.03 0.03 95 1014.6
20260904111259 75 354 0.0 1.0 0.00 0.03 0.03 95 1014.3
20260904110755 75 347 0.0 0.0 0.00 0.03 0.03 95 1014.3
20260904110254 74 329 0.0 2.0 0.00 0.03 0.03 95 1014.3
20260904105750 74 334 0.0 2.0 0.00 0.03 0.03 95 1014.2
20260904105250 74 330 0.0 0.0 0.00 0.03 0.03 95 1014.3
20260904104745 74 336 0.0 1.0 0.00 0.03 0.03 95 1014.2
20260904104241 74 309 0.0 0.0 0.00 0.03 0.03 95 1014.2
20260904103737 74 331 0.0 0.0 0.00 0.03 0.03 95 1014.0
20260904103232 74 323 0.0 1.0 0.00 0.03 0.03 95 1014.1
20260904102727 74 323 0.0 1.0 0.00 0.03 0.03 95 1013.9
20260904102223 74 339 0.0 0.0 0.00 0.03 0.03 95 1014.2
20260904101719 74 330 0.0 1.0 0.00 0.03 0.03 95 1014.0
20260904101215 74 320 0.0 1.0 0.00 0.03 0.03 95 1014.0
20260904100710 74 329 0.0 0.0 0.00 0.03 0.03 95 1013.9
20260904100206 74 339 0.0 1.0 0.00 0.03 0.03 95 1014.0
20260904095706 74 338 0.0 0.0 0.00 0.03 0.03 95 1014.0
20260904095201 74 338 0.0 0.0 0.00 0.03 0.03 95 1013.9
20260904094656 74 336 0.0 0.0 0.00 0.03 0.03 95 1014.0